contact:dominique.lefevre@mio.osupytheas.fr, maurice.libes@osupytheas.fr, didier.mallarino@osupytheas.fr
Project:EMSO http://www.emso-fr.org/EMSO-France
Depth: 2436.0 m
Title:EMSO Ligure Ouest : Data MII capteur MICROCAT
DateTime_Computer,Latitude,Longitude,Temperature,Conductivity,Pressure,DateTime_Instrument
DateTime_Computer,Latitude,Longitude,degC,S m-1,dbar,DateTime_Instrument
2020-10-30T00:00:51Z,42.805,6.029,13.2983,4.59999,2470.04,2020-10-30T02:01:46Z
2020-10-30T00:03:54Z,42.805,6.029,13.2989,4.60021,2470.124,2020-10-30T02:04:49Z
2020-10-30T00:06:57Z,42.805,6.029,13.3005,4.60031,2470.087,2020-10-30T02:07:52Z
2020-10-30T00:10:00Z,42.805,6.029,13.2979,4.60009,2470.063,2020-10-30T02:10:56Z
2020-10-30T00:13:03Z,42.805,6.029,13.2981,4.60021,2470.087,2020-10-30T02:13:59Z
2020-10-30T00:16:07Z,42.805,6.029,13.2993,4.60004,2470.11,2020-10-30T02:17:02Z
2020-10-30T00:19:10Z,42.805,6.029,13.2986,4.60006,2470.04,2020-10-30T02:20:05Z
2020-10-30T00:22:13Z,42.805,6.029,13.3003,4.60021,2470.087,2020-10-30T02:23:08Z
2020-10-30T00:25:16Z,42.805,6.029,13.2986,4.60019,2470.087,2020-10-30T02:26:11Z
2020-10-30T00:28:19Z,42.805,6.029,13.2987,4.60016,2470.053,2020-10-30T02:29:14Z
2020-10-30T00:31:22Z,42.805,6.029,13.2987,4.60024,2470.063,2020-10-30T02:32:17Z
2020-10-30T00:34:25Z,42.805,6.029,13.2990,4.60016,2470.1,2020-10-30T02:35:20Z
2020-10-30T00:37:28Z,42.805,6.029,13.2990,4.60037,2470.077,2020-10-30T02:38:24Z
2020-10-30T00:40:32Z,42.805,6.029,13.3005,4.60025,2470.087,2020-10-30T02:41:27Z
2020-10-30T00:43:35Z,42.805,6.029,13.3009,4.60021,2470.087,2020-10-30T02:44:30Z
2020-10-30T00:46:38Z,42.805,6.029,13.2991,4.60037,2470.04,2020-10-30T02:47:33Z
2020-10-30T00:49:41Z,42.805,6.029,13.3004,4.60021,2470.04,2020-10-30T02:50:36Z
2020-10-30T00:52:44Z,42.805,6.029,13.2982,4.60020,2470.1,2020-10-30T02:53:39Z
2020-10-30T00:55:47Z,42.805,6.029,13.2985,4.60015,2470.087,2020-10-30T02:56:42Z
2020-10-30T00:58:50Z,42.805,6.029,13.2993,4.60011,2470.049,2020-10-30T02:59:45Z
2020-10-30T01:01:53Z,42.805,6.029,13.3007,4.60026,2470.063,2020-10-30T03:02:49Z
2020-10-30T01:04:57Z,42.805,6.029,13.2988,4.60004,2470.049,2020-10-30T03:05:52Z
2020-10-30T01:08:00Z,42.805,6.029,13.2996,4.60017,2470.063,2020-10-30T03:08:55Z
2020-10-30T01:11:03Z,42.805,6.029,13.3006,4.60031,2470.063,2020-10-30T03:11:58Z
2020-10-30T01:14:06Z,42.805,6.029,13.2998,4.60029,2470.077,2020-10-30T03:15:01Z
2020-10-30T01:17:09Z,42.805,6.029,13.3004,4.60026,2470.063,2020-10-30T03:18:04Z
2020-10-30T01:20:12Z,42.805,6.029,13.2999,4.60031,2470.087,2020-10-30T03:21:07Z
2020-10-30T01:23:15Z,42.805,6.029,13.3003,4.60046,2470.077,2020-10-30T03:24:10Z
2020-10-30T01:26:18Z,42.805,6.029,13.2998,4.60044,2470.063,2020-10-30T03:27:14Z
2020-10-30T01:29:21Z,42.805,6.029,13.3007,4.60028,2470.053,2020-10-30T03:30:17Z
2020-10-30T01:32:25Z,42.805,6.029,13.2995,4.60033,2470.04,2020-10-30T03:33:20Z
2020-10-30T01:35:28Z,42.805,6.029,13.2980,4.60002,2470.124,2020-10-30T03:36:23Z
2020-10-30T01:38:31Z,42.805,6.029,13.2986,4.60003,2470.063,2020-10-30T03:39:26Z
2020-10-30T01:41:34Z,42.805,6.029,13.2991,4.60006,2470.063,2020-10-30T03:42:29Z
2020-10-30T01:44:37Z,42.805,6.029,13.2991,4.60019,2470.053,2020-10-30T03:45:32Z
2020-10-30T01:47:40Z,42.805,6.029,13.2986,4.60004,2470.077,2020-10-30T03:48:35Z
2020-10-30T01:50:43Z,42.805,6.029,13.2990,4.60015,2470.077,2020-10-30T03:51:39Z
2020-10-30T01:53:47Z,42.805,6.029,13.2991,4.60011,2470.1,2020-10-30T03:54:42Z
2020-10-30T01:56:50Z,42.805,6.029,13.2986,4.60001,2470.077,2020-10-30T03:57:45Z
2020-10-30T01:59:53Z,42.805,6.029,13.2983,4.60001,2470.063,2020-10-30T04:00:48Z
2020-10-30T02:02:56Z,42.805,6.029,13.2991,4.59999,2470.077,2020-10-30T04:03:51Z
2020-10-30T02:05:59Z,42.805,6.029,13.2982,4.59996,2470.063,2020-10-30T04:06:54Z
2020-10-30T02:09:02Z,42.805,6.029,13.2985,4.60014,2470.087,2020-10-30T04:09:57Z
2020-10-30T02:12:05Z,42.805,6.029,13.2997,4.60024,2470.1,2020-10-30T04:13:00Z
2020-10-30T02:15:08Z,42.805,6.029,13.3005,4.60039,2470.087,2020-10-30T04:16:04Z
2020-10-30T02:18:11Z,42.805,6.029,13.3000,4.60024,2470.063,2020-10-30T04:19:07Z
2020-10-30T02:21:15Z,42.805,6.029,13.3005,4.60031,2470.077,2020-10-30T04:22:10Z
2020-10-30T02:24:18Z,42.805,6.029,13.3005,4.60024,2470.063,2020-10-30T04:25:13Z
2020-10-30T02:27:21Z,42.805,6.029,13.2990,4.60019,2470.1,2020-10-30T04:28:16Z
2020-10-30T02:30:24Z,42.805,6.029,13.2986,4.60021,2470.11,2020-10-30T04:31:19Z
2020-10-30T02:33:27Z,42.805,6.029,13.2995,4.60009,2470.1,2020-10-30T04:34:22Z
2020-10-30T02:36:30Z,42.805,6.029,13.2982,4.60004,2470.087,2020-10-30T04:37:25Z
2020-10-30T02:39:33Z,42.805,6.029,13.2987,4.60010,2470.077,2020-10-30T04:40:29Z
2020-10-30T02:42:36Z,42.805,6.029,13.2995,4.60014,2470.11,2020-10-30T04:43:32Z
2020-10-30T02:45:40Z,42.805,6.029,13.2999,4.60017,2470.11,2020-10-30T04:46:35Z
2020-10-30T02:48:43Z,42.805,6.029,13.2986,4.60014,2470.11,2020-10-30T04:49:38Z
2020-10-30T02:51:46Z,42.805,6.029,13.2995,4.60036,2470.133,2020-10-30T04:52:41Z
2020-10-30T02:54:49Z,42.805,6.029,13.3000,4.60054,2470.124,2020-10-30T04:55:44Z
2020-10-30T02:57:52Z,42.805,6.029,13.2999,4.60039,2470.11,2020-10-30T04:58:47Z
2020-10-30T03:00:55Z,42.805,6.029,13.2996,4.60040,2470.124,2020-10-30T05:01:50Z
2020-10-30T03:03:58Z,42.805,6.029,13.2991,4.60033,2470.11,2020-10-30T05:04:54Z
2020-10-30T03:07:01Z,42.805,6.029,13.2997,4.60034,2470.147,2020-10-30T05:07:57Z
2020-10-30T03:10:05Z,42.805,6.029,13.2996,4.60046,2470.147,2020-10-30T05:11:00Z
2020-10-30T03:13:08Z,42.805,6.029,13.3001,4.60036,2470.147,2020-10-30T05:14:03Z
2020-10-30T03:16:11Z,42.805,6.029,13.3000,4.60044,2470.133,2020-10-30T05:17:06Z
2020-10-30T03:19:14Z,42.805,6.029,13.2982,4.60043,2470.11,2020-10-30T05:20:09Z
2020-10-30T03:22:17Z,42.805,6.029,13.2986,4.60033,2470.147,2020-10-30T05:23:12Z
2020-10-30T03:25:20Z,42.805,6.029,13.2990,4.60040,2470.156,2020-10-30T05:26:15Z
2020-10-30T03:28:23Z,42.805,6.029,13.3001,4.60035,2470.18,2020-10-30T05:29:19Z
2020-10-30T03:31:26Z,42.805,6.029,13.2996,4.60036,2470.156,2020-10-30T05:32:22Z
2020-10-30T03:34:30Z,42.805,6.029,13.2999,4.60019,2470.156,2020-10-30T05:35:25Z
2020-10-30T03:37:33Z,42.805,6.029,13.2999,4.60036,2470.161,2020-10-30T05:38:28Z
2020-10-30T03:40:36Z,42.805,6.029,13.3004,4.60039,2470.133,2020-10-30T05:41:31Z
2020-10-30T03:43:39Z,42.805,6.029,13.3004,4.60029,2470.156,2020-10-30T05:44:34Z
2020-10-30T03:46:42Z,42.805,6.029,13.2990,4.60008,2470.156,2020-10-30T05:47:37Z
2020-10-30T03:49:45Z,42.805,6.029,13.2998,4.60008,2470.194,2020-10-30T05:50:40Z
2020-10-30T03:52:48Z,42.805,6.029,13.3007,4.60022,2470.18,2020-10-30T05:53:43Z
2020-10-30T03:55:51Z,42.805,6.029,13.2992,4.60042,2470.194,2020-10-30T05:56:47Z
2020-10-30T03:58:55Z,42.805,6.029,13.2988,4.60019,2470.147,2020-10-30T05:59:50Z
2020-10-30T04:01:58Z,42.805,6.029,13.2994,4.60028,2470.194,2020-10-30T06:02:53Z
2020-10-30T04:05:01Z,42.805,6.029,13.2998,4.60022,2470.203,2020-10-30T06:05:56Z
2020-10-30T04:08:04Z,42.805,6.029,13.3000,4.60036,2470.171,2020-10-30T06:08:59Z
2020-10-30T04:11:07Z,42.805,6.029,13.3002,4.60024,2470.133,2020-10-30T06:12:02Z
2020-10-30T04:14:10Z,42.805,6.029,13.2996,4.60035,2470.194,2020-10-30T06:15:05Z
2020-10-30T04:17:13Z,42.805,6.029,13.2990,4.60005,2470.194,2020-10-30T06:18:08Z
2020-10-30T04:20:16Z,42.805,6.029,13.2983,4.60011,2470.171,2020-10-30T06:21:12Z
2020-10-30T04:23:20Z,42.805,6.029,13.2987,4.60019,2470.217,2020-10-30T06:24:15Z
2020-10-30T04:26:23Z,42.805,6.029,13.3006,4.60011,2470.194,2020-10-30T06:27:18Z
2020-10-30T04:29:26Z,42.805,6.029,13.3001,4.60029,2470.194,2020-10-30T06:30:21Z
2020-10-30T04:32:29Z,42.805,6.029,13.2990,4.60028,2470.217,2020-10-30T06:33:24Z
2020-10-30T04:35:32Z,42.805,6.029,13.2987,4.60016,2470.18,2020-10-30T06:36:27Z
2020-10-30T04:38:35Z,42.805,6.029,13.2995,4.60008,2470.18,2020-10-30T06:39:30Z
2020-10-30T04:41:38Z,42.805,6.029,13.2989,4.60005,2470.217,2020-10-30T06:42:33Z
2020-10-30T04:44:41Z,42.805,6.029,13.2989,4.60005,2470.217,2020-10-30T06:45:37Z
2020-10-30T04:47:44Z,42.805,6.029,13.2996,4.60022,2470.18,2020-10-30T06:48:40Z
2020-10-30T04:50:48Z,42.805,6.029,13.3008,4.60016,2470.24,2020-10-30T06:51:43Z
2020-10-30T04:53:51Z,42.805,6.029,13.3002,4.60029,2470.203,2020-10-30T06:54:46Z
2020-10-30T04:56:54Z,42.805,6.029,13.3011,4.60026,2470.227,2020-10-30T06:57:49Z
2020-10-30T04:59:57Z,42.805,6.029,13.2995,4.60024,2470.156,2020-10-30T07:00:52Z
2020-10-30T05:03:00Z,42.805,6.029,13.2983,4.60009,2470.203,2020-10-30T07:03:55Z
2020-10-30T05:06:03Z,42.805,6.029,13.2990,4.59999,2470.217,2020-10-30T07:06:58Z
2020-10-30T05:09:06Z,42.805,6.029,13.2987,4.60014,2470.227,2020-10-30T07:10:02Z
2020-10-30T05:12:09Z,42.805,6.029,13.2990,4.60004,2470.227,2020-10-30T07:13:05Z
2020-10-30T05:15:13Z,42.805,6.029,13.2989,4.60002,2470.227,2020-10-30T07:16:08Z
2020-10-30T05:18:16Z,42.805,6.029,13.2992,4.60019,2470.264,2020-10-30T07:19:11Z
2020-10-30T05:21:19Z,42.805,6.029,13.2991,4.60036,2470.24,2020-10-30T07:22:14Z
2020-10-30T05:24:22Z,42.805,6.029,13.2990,4.60009,2470.203,2020-10-30T07:25:17Z
2020-10-30T05:27:25Z,42.805,6.029,13.2990,4.60004,2470.227,2020-10-30T07:28:20Z
2020-10-30T05:30:28Z,42.805,6.029,13.3006,4.60031,2470.203,2020-10-30T07:31:23Z
2020-10-30T05:33:31Z,42.805,6.029,13.2995,4.60022,2470.287,2020-10-30T07:34:27Z
2020-10-30T05:36:34Z,42.805,6.029,13.3001,4.60024,2470.264,2020-10-30T07:37:30Z
2020-10-30T05:39:38Z,42.805,6.029,13.2988,4.60010,2470.25,2020-10-30T07:40:33Z
2020-10-30T05:42:41Z,42.805,6.029,13.2982,4.60028,2470.24,2020-10-30T07:43:36Z
2020-10-30T05:45:44Z,42.805,6.029,13.2979,4.60004,2470.264,2020-10-30T07:46:39Z
2020-10-30T05:48:47Z,42.805,6.029,13.2995,4.60029,2470.287,2020-10-30T07:49:42Z
2020-10-30T05:51:50Z,42.805,6.029,13.2989,4.60022,2470.264,2020-10-30T07:52:45Z
2020-10-30T05:54:53Z,42.805,6.029,13.2982,4.60013,2470.264,2020-10-30T07:55:48Z
2020-10-30T05:57:56Z,42.805,6.029,13.2987,4.60036,2470.25,2020-10-30T07:58:52Z
2020-10-30T06:00:59Z,42.805,6.029,13.3007,4.60014,2470.25,2020-10-30T08:01:55Z
2020-10-30T06:04:03Z,42.805,6.029,13.2989,4.60021,2470.227,2020-10-30T08:04:58Z
2020-10-30T06:07:06Z,42.805,6.029,13.2993,4.60013,2470.25,2020-10-30T08:08:01Z
2020-10-30T06:10:09Z,42.805,6.029,13.2998,4.60017,2470.227,2020-10-30T08:11:04Z
2020-10-30T06:13:12Z,42.805,6.029,13.2985,4.60005,2470.25,2020-10-30T08:14:07Z
2020-10-30T06:16:15Z,42.805,6.029,13.2983,4.59999,2470.25,2020-10-30T08:17:10Z
2020-10-30T06:19:18Z,42.805,6.029,13.2990,4.60009,2470.264,2020-10-30T08:20:13Z
2020-10-30T06:22:21Z,42.805,6.029,13.2978,4.60003,2470.25,2020-10-30T08:23:17Z
2020-10-30T06:25:24Z,42.805,6.029,13.2982,4.60003,2470.287,2020-10-30T08:26:20Z
2020-10-30T06:28:28Z,42.805,6.029,13.2984,4.60003,2470.264,2020-10-30T08:29:23Z
2020-10-30T06:31:31Z,42.805,6.029,13.2991,4.60010,2470.227,2020-10-30T08:32:26Z
2020-10-30T06:34:34Z,42.805,6.029,13.2990,4.59999,2470.227,2020-10-30T08:35:29Z
2020-10-30T06:37:37Z,42.805,6.029,13.2984,4.59997,2470.25,2020-10-30T08:38:32Z
2020-10-30T06:40:40Z,42.805,6.029,13.2983,4.60007,2470.236,2020-10-30T08:41:35Z
2020-10-30T06:43:43Z,42.805,6.029,13.2990,4.60007,2470.24,2020-10-30T08:44:38Z
2020-10-30T06:46:46Z,42.805,6.029,13.2986,4.60024,2470.264,2020-10-30T08:47:41Z
2020-10-30T06:49:49Z,42.805,6.029,13.2998,4.60022,2470.273,2020-10-30T08:50:45Z
2020-10-30T06:52:53Z,42.805,6.029,13.2993,4.60019,2470.24,2020-10-30T08:53:48Z
2020-10-30T06:55:56Z,42.805,6.029,13.2984,4.60007,2470.264,2020-10-30T08:56:51Z
2020-10-30T06:58:59Z,42.805,6.029,13.2996,4.60015,2470.264,2020-10-30T08:59:54Z
2020-10-30T07:02:02Z,42.805,6.029,13.2995,4.60023,2470.227,2020-10-30T09:02:57Z
2020-10-30T07:05:05Z,42.805,6.029,13.2995,4.60039,2470.227,2020-10-30T09:06:00Z
2020-10-30T07:08:08Z,42.805,6.029,13.3003,4.60009,2470.273,2020-10-30T09:09:03Z
2020-10-30T07:11:11Z,42.805,6.029,13.2997,4.60011,2470.25,2020-10-30T09:12:06Z
2020-10-30T07:14:14Z,42.805,6.029,13.3006,4.60026,2470.25,2020-10-30T09:15:10Z
2020-10-30T07:17:17Z,42.805,6.029,13.2991,4.60033,2470.264,2020-10-30T09:18:13Z
2020-10-30T07:20:21Z,42.805,6.029,13.3015,4.60043,2470.227,2020-10-30T09:21:16Z
2020-10-30T07:23:24Z,42.805,6.029,13.2988,4.60024,2470.264,2020-10-30T09:24:19Z
2020-10-30T07:26:27Z,42.805,6.029,13.2996,4.60039,2470.264,2020-10-30T09:27:22Z
2020-10-30T07:29:30Z,42.805,6.029,13.3011,4.60033,2470.25,2020-10-30T09:30:25Z
2020-10-30T07:32:33Z,42.805,6.029,13.3002,4.60043,2470.25,2020-10-30T09:33:28Z
2020-10-30T07:35:36Z,42.805,6.029,13.2988,4.59995,2470.24,2020-10-30T09:36:31Z
2020-10-30T07:38:39Z,42.805,6.029,13.2990,4.60006,2470.264,2020-10-30T09:39:35Z
2020-10-30T07:41:42Z,42.805,6.029,13.2986,4.60000,2470.203,2020-10-30T09:42:38Z
2020-10-30T07:44:46Z,42.805,6.029,13.2985,4.60005,2470.227,2020-10-30T09:45:41Z
2020-10-30T07:47:49Z,42.805,6.029,13.3003,4.60009,2470.194,2020-10-30T09:48:44Z
2020-10-30T07:50:52Z,42.805,6.029,13.3000,4.60026,2470.24,2020-10-30T09:51:47Z
2020-10-30T07:53:55Z,42.805,6.029,13.2984,4.60021,2470.217,2020-10-30T09:54:50Z
2020-10-30T07:56:58Z,42.805,6.029,13.2992,4.60021,2470.227,2020-10-30T09:57:53Z
2020-10-30T08:00:01Z,42.805,6.029,13.2996,4.60029,2470.25,2020-10-30T10:00:56Z
2020-10-30T08:03:04Z,42.805,6.029,13.2998,4.60014,2470.24,2020-10-30T10:04:00Z
2020-10-30T08:06:07Z,42.805,6.029,13.3011,4.60024,2470.227,2020-10-30T10:07:03Z
2020-10-30T08:09:11Z,42.805,6.029,13.3004,4.60014,2470.227,2020-10-30T10:10:06Z
2020-10-30T08:12:14Z,42.805,6.029,13.2991,4.60016,2470.227,2020-10-30T10:13:09Z
2020-10-30T08:15:17Z,42.805,6.029,13.2998,4.60027,2470.203,2020-10-30T10:16:12Z
2020-10-30T08:18:20Z,42.805,6.029,13.2993,4.60024,2470.227,2020-10-30T10:19:15Z
2020-10-30T08:21:23Z,42.805,6.029,13.3002,4.60012,2470.227,2020-10-30T10:22:18Z
2020-10-30T08:24:26Z,42.805,6.029,13.3007,4.60000,2470.18,2020-10-30T10:25:21Z
2020-10-30T08:27:29Z,42.805,6.029,13.2995,4.60015,2470.203,2020-10-30T10:28:25Z
2020-10-30T08:30:32Z,42.805,6.029,13.2985,4.60011,2470.217,2020-10-30T10:31:28Z
2020-10-30T08:33:36Z,42.805,6.029,13.3006,4.60014,2470.194,2020-10-30T10:34:31Z
2020-10-30T08:36:39Z,42.805,6.029,13.2996,4.60034,2470.203,2020-10-30T10:37:34Z
2020-10-30T08:39:42Z,42.805,6.029,13.2983,4.60046,2470.217,2020-10-30T10:40:37Z
2020-10-30T08:42:45Z,42.805,6.029,13.2993,4.60016,2470.217,2020-10-30T10:43:40Z
2020-10-30T08:45:48Z,42.805,6.029,13.2982,4.60019,2470.18,2020-10-30T10:46:43Z
2020-10-30T08:48:51Z,42.805,6.029,13.2986,4.59998,2470.203,2020-10-30T10:49:46Z
2020-10-30T08:51:54Z,42.805,6.029,13.2982,4.59996,2470.217,2020-10-30T10:52:50Z
2020-10-30T08:54:57Z,42.805,6.029,13.2993,4.60022,2470.18,2020-10-30T10:55:53Z
2020-10-30T08:58:01Z,42.805,6.029,13.2991,4.60010,2470.203,2020-10-30T10:58:56Z
2020-10-30T09:01:04Z,42.805,6.029,13.2993,4.60016,2470.194,2020-10-30T11:01:59Z
2020-10-30T09:04:07Z,42.805,6.029,13.2988,4.60009,2470.217,2020-10-30T11:05:02Z
2020-10-30T09:07:10Z,42.805,6.029,13.2983,4.60006,2470.194,2020-10-30T11:08:05Z
2020-10-30T09:10:13Z,42.805,6.029,13.2992,4.60027,2470.18,2020-10-30T11:11:08Z
2020-10-30T09:13:16Z,42.805,6.029,13.2997,4.60026,2470.18,2020-10-30T11:14:11Z
2020-10-30T09:16:19Z,42.805,6.029,13.2996,4.60027,2470.194,2020-10-30T11:17:15Z
2020-10-30T09:19:22Z,42.805,6.029,13.2982,4.60000,2470.18,2020-10-30T11:20:18Z
2020-10-30T09:22:26Z,42.805,6.029,13.2985,4.60010,2470.171,2020-10-30T11:23:21Z
2020-10-30T09:25:29Z,42.805,6.029,13.2992,4.60019,2470.203,2020-10-30T11:26:24Z
2020-10-30T09:28:32Z,42.805,6.029,13.3000,4.60021,2470.217,2020-10-30T11:29:27Z
2020-10-30T09:31:35Z,42.805,6.029,13.2991,4.60023,2470.18,2020-10-30T11:32:30Z
2020-10-30T09:34:38Z,42.805,6.029,13.2994,4.60010,2470.18,2020-10-30T11:35:33Z
2020-10-30T09:37:41Z,42.805,6.029,13.2992,4.60009,2470.156,2020-10-30T11:38:36Z
2020-10-30T09:40:44Z,42.805,6.029,13.2995,4.60012,2470.217,2020-10-30T11:41:40Z
2020-10-30T09:43:47Z,42.805,6.029,13.2996,4.60021,2470.194,2020-10-30T11:44:43Z
2020-10-30T09:46:51Z,42.805,6.029,13.2985,4.59998,2470.133,2020-10-30T11:47:46Z
2020-10-30T09:49:54Z,42.805,6.029,13.2986,4.59999,2470.171,2020-10-30T11:50:49Z
2020-10-30T09:52:57Z,42.805,6.029,13.2986,4.60009,2470.18,2020-10-30T11:53:52Z
2020-10-30T09:56:00Z,42.805,6.029,13.2986,4.60014,2470.194,2020-10-30T11:56:55Z
2020-10-30T09:59:03Z,42.805,6.029,13.2982,4.60014,2470.194,2020-10-30T11:59:58Z
2020-10-30T10:02:06Z,42.805,6.029,13.2986,4.60001,2470.156,2020-10-30T12:03:01Z
2020-10-30T10:05:09Z,42.805,6.029,13.2991,4.60003,2470.18,2020-10-30T12:06:05Z
2020-10-30T10:08:12Z,42.805,6.029,13.2995,4.60027,2470.171,2020-10-30T12:09:08Z
2020-10-30T10:11:16Z,42.805,6.029,13.2984,4.59994,2470.171,2020-10-30T12:12:11Z
2020-10-30T10:14:19Z,42.805,6.029,13.2985,4.60006,2470.147,2020-10-30T12:15:14Z
2020-10-30T10:17:22Z,42.805,6.029,13.2995,4.60021,2470.18,2020-10-30T12:18:17Z
2020-10-30T10:20:25Z,42.805,6.029,13.2990,4.60007,2470.171,2020-10-30T12:21:20Z
2020-10-30T10:23:28Z,42.805,6.029,13.2996,4.60017,2470.133,2020-10-30T12:24:23Z
2020-10-30T10:26:31Z,42.805,6.029,13.2996,4.60019,2470.194,2020-10-30T12:27:27Z
2020-10-30T10:29:34Z,42.805,6.029,13.2984,4.59999,2470.133,2020-10-30T12:30:30Z
2020-10-30T10:32:38Z,42.805,6.029,13.2986,4.60012,2470.171,2020-10-30T12:33:33Z
2020-10-30T10:35:41Z,42.805,6.029,13.2986,4.60009,2470.156,2020-10-30T12:36:36Z
2020-10-30T10:38:44Z,42.805,6.029,13.2984,4.60014,2470.171,2020-10-30T12:39:39Z
2020-10-30T10:41:47Z,42.805,6.029,13.2985,4.60013,2470.18,2020-10-30T12:42:42Z
2020-10-30T10:44:50Z,42.805,6.029,13.2984,4.59997,2470.18,2020-10-30T12:45:45Z
2020-10-30T10:47:53Z,42.805,6.029,13.2982,4.59998,2470.124,2020-10-30T12:48:48Z
2020-10-30T10:50:56Z,42.805,6.029,13.2986,4.60001,2470.133,2020-10-30T12:51:52Z
2020-10-30T10:53:59Z,42.805,6.029,13.2986,4.59997,2470.156,2020-10-30T12:54:55Z
2020-10-30T10:57:03Z,42.805,6.029,13.2989,4.60000,2470.156,2020-10-30T12:57:58Z
2020-10-30T11:00:06Z,42.805,6.029,13.2993,4.60016,2470.156,2020-10-30T13:01:01Z
2020-10-30T11:03:09Z,42.805,6.029,13.3001,4.60020,2470.133,2020-10-30T13:04:04Z
2020-10-30T11:06:12Z,42.805,6.029,13.2989,4.60011,2470.133,2020-10-30T13:07:07Z
2020-10-30T11:09:15Z,42.805,6.029,13.2986,4.60017,2470.133,2020-10-30T13:10:10Z
2020-10-30T11:12:18Z,42.805,6.029,13.2988,4.60001,2470.11,2020-10-30T13:13:13Z
2020-10-30T11:15:21Z,42.805,6.029,13.2980,4.59994,2470.133,2020-10-30T13:16:17Z
2020-10-30T11:18:24Z,42.805,6.029,13.2979,4.59999,2470.11,2020-10-30T13:19:20Z
2020-10-30T11:21:28Z,42.805,6.029,13.2991,4.60024,2470.171,2020-10-30T13:22:23Z
2020-10-30T11:24:31Z,42.805,6.029,13.2998,4.60018,2470.133,2020-10-30T13:25:26Z
2020-10-30T11:27:34Z,42.805,6.029,13.2990,4.60023,2470.133,2020-10-30T13:28:29Z
2020-10-30T11:30:37Z,42.805,6.029,13.2981,4.59994,2470.11,2020-10-30T13:31:32Z
2020-10-30T11:33:40Z,42.805,6.029,13.2982,4.59992,2470.133,2020-10-30T13:34:35Z
2020-10-30T11:36:43Z,42.805,6.029,13.2992,4.60008,2470.133,2020-10-30T13:37:38Z
2020-10-30T11:39:46Z,42.805,6.029,13.2993,4.60014,2470.133,2020-10-30T13:40:42Z
2020-10-30T11:42:49Z,42.805,6.029,13.2983,4.60005,2470.087,2020-10-30T13:43:45Z
2020-10-30T11:45:53Z,42.805,6.029,13.2992,4.60008,2470.11,2020-10-30T13:46:48Z
2020-10-30T11:48:56Z,42.805,6.029,13.2987,4.60016,2470.133,2020-10-30T13:49:51Z
2020-10-30T11:51:59Z,42.805,6.029,13.2982,4.60014,2470.11,2020-10-30T13:52:54Z
2020-10-30T11:55:02Z,42.805,6.029,13.2983,4.59999,2470.124,2020-10-30T13:55:57Z
2020-10-30T11:58:05Z,42.805,6.029,13.2990,4.60015,2470.133,2020-10-30T13:59:00Z
2020-10-30T12:01:08Z,42.805,6.029,13.2990,4.60013,2470.124,2020-10-30T14:02:03Z
2020-10-30T12:04:11Z,42.805,6.029,13.2985,4.60024,2470.133,2020-10-30T14:05:07Z
2020-10-30T12:07:14Z,42.805,6.029,13.2993,4.60023,2470.1,2020-10-30T14:08:10Z
2020-10-30T12:10:18Z,42.805,6.029,13.3003,4.60019,2470.11,2020-10-30T14:11:13Z
2020-10-30T12:13:21Z,42.805,6.029,13.2986,4.60005,2470.087,2020-10-30T14:14:16Z
2020-10-30T12:16:24Z,42.805,6.029,13.2991,4.60007,2470.087,2020-10-30T14:17:19Z
2020-10-30T12:19:27Z,42.805,6.029,13.2991,4.60006,2470.11,2020-10-30T14:20:22Z
2020-10-30T12:22:30Z,42.805,6.029,13.2991,4.60009,2470.11,2020-10-30T14:23:25Z
2020-10-30T12:25:33Z,42.805,6.029,13.2991,4.60013,2470.087,2020-10-30T14:26:28Z
2020-10-30T12:28:36Z,42.805,6.029,13.2989,4.60015,2470.147,2020-10-30T14:29:32Z
2020-10-30T12:31:39Z,42.805,6.029,13.2998,4.60007,2470.124,2020-10-30T14:32:35Z
2020-10-30T12:34:43Z,42.805,6.029,13.2981,4.59998,2470.133,2020-10-30T14:35:38Z
2020-10-30T12:37:46Z,42.805,6.029,13.2986,4.60002,2470.133,2020-10-30T14:38:41Z
2020-10-30T12:40:49Z,42.805,6.029,13.2985,4.60009,2470.124,2020-10-30T14:41:44Z
2020-10-30T12:43:52Z,42.805,6.029,13.2992,4.60021,2470.087,2020-10-30T14:44:47Z
2020-10-30T12:46:55Z,42.805,6.029,13.2982,4.59996,2470.053,2020-10-30T14:47:50Z
2020-10-30T12:49:58Z,42.805,6.029,13.2985,4.60011,2470.1,2020-10-30T14:50:53Z
2020-10-30T12:53:01Z,42.805,6.029,13.2995,4.60019,2470.11,2020-10-30T14:53:57Z
2020-10-30T12:56:04Z,42.805,6.029,13.2991,4.60013,2470.063,2020-10-30T14:57:00Z
2020-10-30T12:59:08Z,42.805,6.029,13.2983,4.60037,2470.087,2020-10-30T15:00:03Z
2020-10-30T13:02:11Z,42.805,6.029,13.2988,4.60013,2470.11,2020-10-30T15:03:06Z
2020-10-30T13:05:14Z,42.805,6.029,13.2993,4.60006,2470.1,2020-10-30T15:06:09Z
2020-10-30T13:08:17Z,42.805,6.029,13.2983,4.60006,2470.087,2020-10-30T15:09:12Z
2020-10-30T13:11:20Z,42.805,6.029,13.2987,4.60019,2470.11,2020-10-30T15:12:15Z
2020-10-30T13:14:23Z,42.805,6.029,13.2988,4.60005,2470.11,2020-10-30T15:15:18Z
2020-10-30T13:17:26Z,42.805,6.029,13.2976,4.59994,2470.063,2020-10-30T15:18:22Z
2020-10-30T13:20:29Z,42.805,6.029,13.2982,4.59993,2470.124,2020-10-30T15:21:25Z
2020-10-30T13:23:33Z,42.805,6.029,13.2989,4.59998,2470.049,2020-10-30T15:24:28Z
2020-10-30T13:26:36Z,42.805,6.029,13.2983,4.59997,2470.11,2020-10-30T15:27:31Z
2020-10-30T13:29:39Z,42.805,6.029,13.2985,4.60001,2470.087,2020-10-30T15:30:34Z
2020-10-30T13:32:42Z,42.805,6.029,13.2990,4.60011,2470.133,2020-10-30T15:33:37Z
2020-10-30T13:35:45Z,42.805,6.029,13.2988,4.60005,2470.096,2020-10-30T15:36:40Z
2020-10-30T13:38:48Z,42.805,6.029,13.2983,4.60001,2470.087,2020-10-30T15:39:44Z
2020-10-30T13:41:51Z,42.805,6.029,13.2979,4.60005,2470.087,2020-10-30T15:42:47Z
2020-10-30T13:44:55Z,42.805,6.029,13.2992,4.60011,2470.11,2020-10-30T15:45:50Z
2020-10-30T13:47:58Z,42.805,6.029,13.2990,4.60005,2470.124,2020-10-30T15:48:53Z
2020-10-30T13:51:01Z,42.805,6.029,13.2991,4.60011,2470.11,2020-10-30T15:51:56Z
2020-10-30T13:54:04Z,42.805,6.029,13.2980,4.59996,2470.11,2020-10-30T15:54:59Z
2020-10-30T13:57:07Z,42.805,6.029,13.2984,4.60003,2470.124,2020-10-30T15:58:02Z
2020-10-30T14:00:10Z,42.805,6.029,13.2990,4.60007,2470.133,2020-10-30T16:01:05Z
2020-10-30T14:03:13Z,42.805,6.029,13.2987,4.60016,2470.147,2020-10-30T16:04:09Z
2020-10-30T14:06:16Z,42.805,6.029,13.2978,4.59999,2470.11,2020-10-30T16:07:12Z
2020-10-30T14:09:20Z,42.805,6.029,13.2983,4.60015,2470.11,2020-10-30T16:10:15Z
2020-10-30T14:12:23Z,42.805,6.029,13.2998,4.60006,2470.11,2020-10-30T16:13:18Z
2020-10-30T14:15:26Z,42.805,6.029,13.2989,4.60019,2470.147,2020-10-30T16:16:21Z
2020-10-30T14:18:29Z,42.805,6.029,13.2990,4.60024,2470.11,2020-10-30T16:19:24Z
2020-10-30T14:21:32Z,42.805,6.029,13.2994,4.60006,2470.124,2020-10-30T16:22:27Z
2020-10-30T14:24:35Z,42.805,6.029,13.2986,4.59998,2470.11,2020-10-30T16:25:30Z
2020-10-30T14:27:38Z,42.805,6.029,13.2982,4.59998,2470.133,2020-10-30T16:28:34Z
2020-10-30T14:30:41Z,42.805,6.029,13.2992,4.60017,2470.11,2020-10-30T16:31:37Z
2020-10-30T14:33:45Z,42.805,6.029,13.2994,4.60011,2470.1,2020-10-30T16:34:40Z
2020-10-30T14:36:48Z,42.805,6.029,13.2986,4.60015,2470.11,2020-10-30T16:37:43Z
2020-10-30T14:39:51Z,42.805,6.029,13.2991,4.60020,2470.133,2020-10-30T16:40:46Z
2020-10-30T14:42:54Z,42.805,6.029,13.2991,4.60022,2470.124,2020-10-30T16:43:49Z
2020-10-30T14:45:57Z,42.805,6.029,13.2985,4.60013,2470.133,2020-10-30T16:46:52Z
2020-10-30T14:49:00Z,42.805,6.029,13.2985,4.60000,2470.124,2020-10-30T16:49:55Z
2020-10-30T14:52:03Z,42.805,6.029,13.2990,4.60016,2470.147,2020-10-30T16:52:59Z
2020-10-30T14:55:06Z,42.805,6.029,13.2987,4.60014,2470.147,2020-10-30T16:56:02Z
2020-10-30T14:58:10Z,42.805,6.029,13.2983,4.59999,2470.156,2020-10-30T16:59:05Z
2020-10-30T15:01:13Z,42.805,6.029,13.2986,4.60008,2470.133,2020-10-30T17:02:08Z